When you browse on this site, cookies collect data to enhance your experience and personalize the content and advertising you see.
Visit our Privacy Policy to learn more. By continuing to use the site, you agree to this use of cookies and data.
  • In Austria
  • List of Countries
  • For 7 days
  • Water Temperature
  • Weather Map
  • News
  • Weather Widgets
  • user-avatar
    Login

    Hourly Weather Vejalpur

    Today, 27 May, Wednesday

    Time Temperature Precipitation Wind Pressure Humidity
    00:00 +32°C° 0 mm 4 mps 745 mmHg 68%
    01:00 +30°C° 0 mm 4 mps 744 mmHg 74%
    02:00 +29°C° 0 mm 4 mps 744 mmHg 80%
    03:00 +29°C° 0 mm 4 mps 744 mmHg 83%
    04:00 +28°C° 0 mm 3 mps 744 mmHg 85%
    05:00 +28°C° 0 mm 3 mps 744 mmHg 85%
    06:00 +30°C° 0 mm 4 mps 745 mmHg 72%
    07:00 +33°C° 0 mm 4 mps 745 mmHg 60%
    08:00 +35°C° 0 mm 5 mps 746 mmHg 47%
    09:00 +38°C° 0 mm 6 mps 745 mmHg 39%
    10:00 +41°C° 0 mm 6 mps 745 mmHg 31%
    11:00 +45°C° 0 mm 7 mps 745 mmHg 22%
    12:00 +47°C° 0 mm 7 mps 744 mmHg 19%
    13:00 +49°C° 0 mm 7 mps 743 mmHg 16%
    14:00 +51°C° 0 mm 7 mps 742 mmHg 12%
    15:00 +51°C° 0 mm 7 mps 742 mmHg 13%
    16:00 +50°C° 0 mm 8 mps 741 mmHg 13%
    17:00 +50°C° 0 mm 8 mps 741 mmHg 13%
    18:00 +45°C° 0 mm 8 mps 741 mmHg 24%
    19:00 +41°C° 0 mm 7 mps 742 mmHg 35%
    20:00 +36°C° 0 mm 7 mps 742 mmHg 46%
    21:00 +35°C° 0 mm 7 mps 743 mmHg 52%
    22:00 +34°C° 0 mm 6 mps 743 mmHg 58%
    23:00 +33°C° 0 mm 6 mps 743 mmHg 65%

    Tomorrow, 28 May, Thursday

    Time Temperature Precipitation Wind Pressure Humidity
    00:00 +32°C° 0 mm 5 mps 743 mmHg 65%
    01:00 +32°C° 0 mm 4 mps 743 mmHg 65%
    02:00 +30°C° 0 mm 3 mps 743 mmHg 66%
    03:00 +30°C° 0 mm 4 mps 743 mmHg 67%
    04:00 +30°C° 0 mm 5 mps 743 mmHg 68%
    05:00 +29°C° 0 mm 5 mps 744 mmHg 69%
    06:00 +32°C° 0 mm 6 mps 744 mmHg 65%
    07:00 +33°C° 0 mm 6 mps 745 mmHg 60%
    08:00 +34°C° 0 mm 7 mps 745 mmHg 56%
    09:00 +38°C° 0 mm 7 mps 745 mmHg 47%
    10:00 +40°C° 0 mm 7 mps 744 mmHg 39%
    11:00 +43°C° 0 mm 7 mps 744 mmHg 30%
    12:00 +45°C° 0 mm 7 mps 743 mmHg 25%
    13:00 +47°C° 0 mm 7 mps 742 mmHg 19%
    14:00 +50°C° 0 mm 7 mps 741 mmHg 13%
    15:00 +50°C° 0 mm 7 mps 741 mmHg 14%
    16:00 +49°C° 0 mm 8 mps 740 mmHg 15%
    17:00 +48°C° 0 mm 9 mps 740 mmHg 16%
    18:00 +44°C° 0 mm 8 mps 741 mmHg 29%
    19:00 +39°C° 0 mm 8 mps 741 mmHg 42%
    20:00 +35°C° 0 mm 8 mps 742 mmHg 56%
    21:00 +34°C° 0 mm 7 mps 742 mmHg 58%
    22:00 +34°C° 0 mm 5 mps 743 mmHg 60%
    23:00 +33°C° 0 mm 4 mps 743 mmHg 62%

    Day after tomorrow, 29 May, Friday

    Time Temperature Precipitation Wind Pressure Humidity
    00:00 +33°C° 0 mm 5 mps 743 mmHg 63%
    01:00 +32°C° 0 mm 5 mps 743 mmHg 63%
    02:00 +32°C° 0 mm 5 mps 743 mmHg 63%
    03:00 +30°C° 0 mm 5 mps 743 mmHg 69%
    04:00 +29°C° 0 mm 5 mps 743 mmHg 75%
    05:00 +29°C° 0 mm 5 mps 743 mmHg 81%
    06:00 +30°C° 0 mm 6 mps 744 mmHg 75%
    07:00 +32°C° 0 mm 6 mps 744 mmHg 69%
    08:00 +34°C° 0 mm 7 mps 745 mmHg 63%
    09:00 +36°C° 0 mm 7 mps 744 mmHg 53%
    10:00 +39°C° 0 mm 8 mps 744 mmHg 43%
    11:00 +43°C° 0 mm 8 mps 744 mmHg 33%
    12:00 +44°C° 0 mm 8 mps 743 mmHg 30%
    13:00 +45°C° 0 mm 8 mps 742 mmHg 27%
    14:00 +46°C° 0 mm 8 mps 742 mmHg 24%
    15:00 +46°C° 0 mm 8 mps 741 mmHg 25%
    16:00 +45°C° 0 mm 9 mps 741 mmHg 26%
    17:00 +45°C° 0 mm 9 mps 741 mmHg 26%
    18:00 +42°C° 0 mm 9 mps 741 mmHg 37%
    19:00 +38°C° 0 mm 9 mps 742 mmHg 48%
    20:00 +34°C° 0 mm 9 mps 742 mmHg 59%
    21:00 +34°C° 0 mm 9 mps 743 mmHg 63%
    22:00 +33°C° 0 mm 8 mps 744 mmHg 66%
    23:00 +32°C° 0 mm 7 mps 744 mmHg 70%

    30 May, Saturday

    Time Temperature Precipitation Wind Pressure Humidity
    00:00 +32°C° 0 mm 6 mps 744 mmHg 73%
    01:00 +30°C° 0 mm 6 mps 744 mmHg 75%
    02:00 +30°C° 0 mm 5 mps 744 mmHg 78%
    03:00 +30°C° 0 mm 4 mps 744 mmHg 79%
    04:00 +29°C° 0 mm 4 mps 744 mmHg 81%
    05:00 +29°C° 0 mm 3 mps 744 mmHg 82%
    06:00 +30°C° 0 mm 4 mps 745 mmHg 74%
    07:00 +33°C° 0 mm 5 mps 745 mmHg 67%
    08:00 +34°C° 0 mm 6 mps 745 mmHg 59%
    09:00 +36°C° 0 mm 6 mps 745 mmHg 51%
    10:00 +40°C° 0 mm 7 mps 745 mmHg 42%
    11:00 +43°C° 0 mm 7 mps 745 mmHg 33%
    12:00 +44°C° 0 mm 7 mps 744 mmHg 28%
    13:00 +46°C° 0 mm 7 mps 743 mmHg 23%
    14:00 +47°C° 0 mm 7 mps 743 mmHg 18%
    15:00 +47°C° 0 mm 7 mps 742 mmHg 18%
    16:00 +46°C° 0 mm 7 mps 742 mmHg 18%
    17:00 +46°C° 0 mm 7 mps 741 mmHg 18%
    18:00 +43°C° 0 mm 7 mps 742 mmHg 29%
    19:00 +39°C° 0 mm 8 mps 743 mmHg 40%
    20:00 +35°C° 0 mm 9 mps 743 mmHg 51%
    21:00 +34°C° 0 mm 9 mps 744 mmHg 56%
    22:00 +34°C° 0 mm 8 mps 745 mmHg 61%
    23:00 +33°C° 0 mm 8 mps 746 mmHg 67%

    31 May, Sunday

    Time Temperature Precipitation Wind Pressure Humidity
    00:00 +33°C° 0 mm 7 mps 746 mmHg 68%
    01:00 +32°C° 0 mm 6 mps 746 mmHg 70%
    02:00 +32°C° 0 mm 6 mps 746 mmHg 71%
    03:00 +30°C° 0 mm 5 mps 746 mmHg 74%
    04:00 +30°C° 0 mm 4 mps 747 mmHg 76%
    05:00 +30°C° 0 mm 3 mps 747 mmHg 78%
    06:00 +31°C° 0 mm 3 mps 747 mmHg 70%
    07:00 +33°C° 0 mm 4 mps 747 mmHg 62%
    08:00 +35°C° 0 mm 4 mps 747 mmHg 54%
    09:00 +37°C° 0 mm 4 mps 747 mmHg 46%
    10:00 +40°C° 0 mm 5 mps 747 mmHg 37%
    11:00 +42°C° 0 mm 6 mps 746 mmHg 29%
    12:00 +45°C° 0 mm 6 mps 746 mmHg 26%
    13:00 +46°C° 0 mm 6 mps 745 mmHg 22%
    14:00 +47°C° 0 mm 6 mps 744 mmHg 19%
    15:00 +47°C° 0 mm 6 mps 744 mmHg 18%
    16:00 +47°C° 0 mm 6 mps 743 mmHg 18%
    17:00 +47°C° 0 mm 6 mps 743 mmHg 18%
    18:00 +44°C° 0 mm 6 mps 743 mmHg 28%
    19:00 +40°C° 0 mm 6 mps 744 mmHg 37%
    20:00 +36°C° 0 mm 7 mps 744 mmHg 47%
    21:00 +35°C° 0 mm 6 mps 745 mmHg 52%
    22:00 +34°C° 0 mm 5 mps 746 mmHg 57%
    23:00 +33°C° 0 mm 4 mps 746 mmHg 62%

    1 June, Monday

    Time Temperature Precipitation Wind Pressure Humidity
    00:00 +33°C° 0 mm 4 mps 746 mmHg 64%
    01:00 +31°C° 0 mm 3 mps 746 mmHg 65%
    02:00 +31°C° 0 mm 3 mps 746 mmHg 67%
    03:00 +31°C° 0 mm 3 mps 746 mmHg 69%
    04:00 +30°C° 0 mm 3 mps 746 mmHg 71%
    05:00 +30°C° 0 mm 3 mps 746 mmHg 72%
    06:00 +31°C° 0.1 mm 3 mps 747 mmHg 69%
    07:00 +33°C° 0.1 mm 3 mps 747 mmHg 65%
    08:00 +34°C° 0.1 mm 4 mps 747 mmHg 62%
    09:00 +36°C° 0 mm 4 mps 747 mmHg 52%
    10:00 +40°C° 0 mm 4 mps 747 mmHg 42%
    11:00 +42°C° 0 mm 4 mps 747 mmHg 33%
    12:00 +43°C° 0 mm 4 mps 746 mmHg 28%
    13:00 +45°C° 0 mm 4 mps 745 mmHg 23%
    14:00 +47°C° 0 mm 4 mps 744 mmHg 18%
    15:00 +47°C° 0 mm 4 mps 744 mmHg 17%
    16:00 +47°C° 0 mm 5 mps 744 mmHg 17%
    17:00 +46°C° 0 mm 5 mps 744 mmHg 16%
    18:00 +42°C° 0 mm 5 mps 744 mmHg 25%
    19:00 +39°C° 0 mm 5 mps 744 mmHg 33%
    20:00 +35°C° 0 mm 5 mps 745 mmHg 41%
    21:00 +34°C° 0 mm 4 mps 745 mmHg 49%
    22:00 +33°C° 0 mm 3 mps 746 mmHg 57%
    23:00 +31°C° 0 mm 2 mps 746 mmHg 65%
    Show more